Time,TemperatureF,DewpointF,PressureIn,WindDirection,WindDirectionDegrees,WindSpeedMPH,WindSpeedGustMPH,Humidity,HourlyPrecipIn,Conditions,Clouds,dailyrainin,SoftwareType,DateUTC
2013-05-14 00:01:00,67.5,43.6,30.21,NE,45,0.0,0.9,42,0.00,,---,0.00,VWS V14.01,2013-05-14 04:01:00,
2013-05-14 00:03:00,67.5,43.6,30.21,East,90,0.0,0.0,42,0.00,,---,0.00,VWS V14.01,2013-05-14 04:03:00,
2013-05-14 00:07:00,67.3,44.0,30.21,ENE,68,0.0,0.9,43,0.00,,---,0.00,VWS V14.01,2013-05-14 04:07:00,
2013-05-14 00:10:00,67.3,44.0,30.21,SE,135,0.0,0.0,43,0.00,,---,0.00,VWS V14.01,2013-05-14 04:10:00,
2013-05-14 00:16:00,67.1,43.9,30.21,SE,135,0.0,0.0,43,0.00,,---,0.00,VWS V14.01,2013-05-14 04:16:00,
2013-05-14 00:21:00,66.9,43.7,30.21,SE,135,0.0,0.0,43,0.00,,---,0.00,VWS V14.01,2013-05-14 04:21:00,
2013-05-14 00:27:00,66.7,44.2,30.21,SE,135,0.0,0.0,44,0.00,,---,0.00,VWS V14.01,2013-05-14 04:27:00,
2013-05-14 00:33:00,66.6,44.0,30.21,SE,135,0.0,0.0,44,0.00,,---,0.00,VWS V14.01,2013-05-14 04:33:00,
2013-05-14 00:38:00,66.4,43.8,30.21,SE,135,0.0,0.0,44,0.00,,---,0.00,VWS V14.01,2013-05-14 04:38:00,
2013-05-14 00:43:00,66.2,44.2,30.21,SE,135,0.0,0.0,45,0.00,,---,0.00,VWS V14.01,2013-05-14 04:43:00,
2013-05-14 00:48:00,66.0,44.7,30.21,SE,135,0.0,0.0,46,0.00,,---,0.00,VWS V14.01,2013-05-14 04:48:00,
2013-05-14 00:54:00,65.8,44.5,30.21,SE,135,0.0,0.0,46,0.00,,---,0.00,VWS V14.01,2013-05-14 04:54:00,
2013-05-14 00:59:00,65.7,44.3,30.21,SE,135,0.0,0.0,46,0.00,,---,0.00,VWS V14.01,2013-05-14 04:59:00,
2013-05-14 01:04:00,65.5,44.2,30.21,SE,135,0.0,0.0,46,0.00,,---,0.00,VWS V14.01,2013-05-14 05:04:00,
2013-05-14 01:10:00,65.3,44.6,30.21,East,90,0.0,0.0,47,0.00,,---,0.00,VWS V14.01,2013-05-14 05:10:00,
2013-05-14 01:15:00,65.1,44.4,30.21,NW,315,0.0,0.0,47,0.00,,---,0.00,VWS V14.01,2013-05-14 05:15:00,
2013-05-14 01:20:00,65.1,45.0,30.21,North,0,0.0,0.0,48,0.00,,---,0.00,VWS V14.01,2013-05-14 05:20:00,
2013-05-14 01:26:00,64.9,44.8,30.21,ESE,112,0.0,0.0,48,0.00,,---,0.00,VWS V14.01,2013-05-14 05:26:00,
2013-05-14 01:32:00,64.8,44.6,30.21,NE,45,0.0,0.0,48,0.00,,---,0.00,VWS V14.01,2013-05-14 05:32:00,
2013-05-14 01:37:00,64.8,44.6,30.21,NNW,338,0.9,1.1,48,0.00,,---,0.00,VWS V14.01,2013-05-14 05:37:00,
2013-05-14 01:43:00,64.8,45.2,30.21,North,0,0.0,0.9,49,0.00,,---,0.00,VWS V14.01,2013-05-14 05:43:00,
2013-05-14 01:48:00,64.6,45.0,30.21,NNW,338,0.0,0.0,49,0.00,,---,0.00,VWS V14.01,2013-05-14 05:48:00,
2013-05-14 01:53:00,64.6,45.0,30.21,NNE,22,0.0,0.0,49,0.00,,---,0.00,VWS V14.01,2013-05-14 05:53:00,
2013-05-14 01:58:00,64.4,44.8,30.21,NNE,22,0.0,0.0,49,0.00,,---,0.00,VWS V14.01,2013-05-14 05:58:00,
2013-05-14 02:04:00,64.4,44.8,30.21,ESE,112,0.0,0.0,49,0.00,,---,0.00,VWS V14.01,2013-05-14 06:04:00,
2013-05-14 02:09:00,64.4,44.8,30.21,NNE,22,0.0,0.0,49,0.00,,---,0.00,VWS V14.01,2013-05-14 06:09:00,
2013-05-14 02:14:00,64.2,44.7,30.21,NNE,22,0.0,0.0,49,0.00,,---,0.00,VWS V14.01,2013-05-14 06:14:00,
2013-05-14 02:19:00,64.0,44.5,30.21,NNE,22,0.0,0.0,49,0.00,,---,0.00,VWS V14.01,2013-05-14 06:19:00,
2013-05-14 02:25:00,64.0,44.5,30.21,ESE,112,0.0,0.0,49,0.00,,---,0.00,VWS V14.01,2013-05-14 06:25:00,
2013-05-14 02:30:00,63.9,44.3,30.21,East,90,0.0,0.0,49,0.00,,---,0.00,VWS V14.01,2013-05-14 06:30:00,
2013-05-14 02:35:00,63.9,44.3,30.21,NW,315,0.0,0.0,49,0.00,,---,0.00,VWS V14.01,2013-05-14 06:35:00,
2013-05-14 02:41:00,63.9,44.3,30.21,SSE,158,0.0,1.6,49,0.00,,---,0.00,VWS V14.01,2013-05-14 06:41:00,
2013-05-14 02:46:00,63.9,44.3,30.21,ESE,112,2.5,2.5,49,0.00,,---,0.00,VWS V14.01,2013-05-14 06:46:00,
2013-05-14 02:51:00,63.7,44.2,30.21,NW,315,0.0,2.5,49,0.00,,---,0.00,VWS V14.01,2013-05-14 06:51:00,
2013-05-14 02:57:00,63.7,44.2,30.21,ESE,112,0.0,0.0,49,0.00,,---,0.00,VWS V14.01,2013-05-14 06:57:00,
2013-05-14 03:03:00,63.7,43.6,30.21,NNW,338,2.7,4.0,48,0.00,,---,0.00,VWS V14.01,2013-05-14 07:03:00,
2013-05-14 03:08:00,63.7,43.6,30.21,NNW,338,0.0,1.1,48,0.00,,---,0.00,VWS V14.01,2013-05-14 07:08:00,
2013-05-14 03:14:00,63.9,43.3,30.21,North,0,1.1,1.3,47,0.00,,---,0.00,VWS V14.01,2013-05-14 07:14:00,
2013-05-14 03:19:00,63.9,43.3,30.21,NNE,22,0.0,1.6,47,0.00,,---,0.00,VWS V14.01,2013-05-14 07:19:00,
2013-05-14 03:25:00,63.7,43.1,30.21,North,0,0.0,0.0,47,0.00,,---,0.00,VWS V14.01,2013-05-14 07:25:00,
2013-05-14 03:31:00,63.7,42.5,30.21,NE,45,0.0,0.0,46,0.00,,---,0.00,VWS V14.01,2013-05-14 07:31:00,
2013-05-14 03:36:00,63.5,42.4,30.21,North,0,0.0,0.0,46,0.00,,---,0.00,VWS V14.01,2013-05-14 07:36:00,
2013-05-14 03:42:00,63.5,42.4,30.21,East,90,0.0,0.0,46,0.00,,---,0.00,VWS V14.01,2013-05-14 07:42:00,
2013-05-14 03:47:00,63.3,42.2,30.21,SE,135,0.0,0.0,46,0.00,,---,0.00,VWS V14.01,2013-05-14 07:47:00,
2013-05-14 03:52:00,63.1,42.0,30.21,SE,135,0.0,0.0,46,0.00,,---,0.00,VWS V14.01,2013-05-14 07:52:00,
2013-05-14 03:57:00,63.0,41.9,30.21,SE,135,0.0,0.0,46,0.00,,---,0.00,VWS V14.01,2013-05-14 07:57:00,
2013-05-14 04:03:00,62.8,41.7,30.21,East,90,0.0,1.1,46,0.00,,---,0.00,VWS V14.01,2013-05-14 08:03:00,
2013-05-14 04:08:00,62.8,41.7,30.21,NW,315,0.0,0.0,46,0.00,,---,0.00,VWS V14.01,2013-05-14 08:08:00,
2013-05-14 04:14:00,62.6,41.5,30.21,East,90,0.0,0.0,46,0.00,,---,0.00,VWS V14.01,2013-05-14 08:14:00,
2013-05-14 04:20:00,62.2,41.2,30.21,SE,135,1.1,1.3,46,0.00,,---,0.00,VWS V14.01,2013-05-14 08:20:00,
2013-05-14 04:25:00,62.2,41.8,30.21,SE,135,0.0,0.0,47,0.00,,---,0.00,VWS V14.01,2013-05-14 08:25:00,
2013-05-14 04:31:00,62.1,41.6,30.21,NNW,338,1.1,1.1,47,0.00,,---,0.00,VWS V14.01,2013-05-14 08:31:00,
2013-05-14 04:36:00,61.9,41.5,30.21,East,90,0.0,0.0,47,0.00,,---,0.00,VWS V14.01,2013-05-14 08:36:00,
2013-05-14 04:42:00,61.9,41.5,30.21,East,90,1.1,2.0,47,0.00,,---,0.00,VWS V14.01,2013-05-14 08:42:00,
2013-05-14 04:47:00,61.7,41.3,30.21,South,180,0.0,0.0,47,0.00,,---,0.00,VWS V14.01,2013-05-14 08:47:00,
2013-05-14 04:52:00,61.7,41.8,30.21,North,0,1.3,1.3,48,0.00,,---,0.00,VWS V14.01,2013-05-14 08:52:00,
2013-05-14 04:58:00,61.7,41.8,30.21,NNW,338,0.9,2.9,48,0.00,,---,0.00,VWS V14.01,2013-05-14 08:58:00,
2013-05-14 05:04:00,61.7,41.8,30.21,North,0,0.0,2.0,48,0.00,,---,0.00,VWS V14.01,2013-05-14 09:04:00,
2013-05-14 05:09:00,61.7,41.8,30.21,NNW,338,0.0,1.1,48,0.00,,---,0.00,VWS V14.01,2013-05-14 09:09:00,
2013-05-14 05:14:00,61.7,41.8,30.21,NNW,338,2.2,2.5,48,0.00,,---,0.00,VWS V14.01,2013-05-14 09:14:00,
2013-05-14 05:20:00,61.7,41.8,30.21,NW,315,2.0,2.0,48,0.00,,---,0.00,VWS V14.01,2013-05-14 09:20:00,
2013-05-14 05:25:00,61.7,41.8,30.21,NNW,338,2.0,2.7,48,0.00,,---,0.00,VWS V14.01,2013-05-14 09:25:00,
2013-05-14 05:30:00,61.7,41.8,30.21,NNW,338,0.0,0.0,48,0.00,,---,0.00,VWS V14.01,2013-05-14 09:30:00,
2013-05-14 05:35:00,61.7,41.8,30.21,NW,315,0.0,0.9,48,0.00,,---,0.00,VWS V14.01,2013-05-14 09:35:00,
2013-05-14 05:40:00,61.7,41.8,30.21,North,0,1.3,2.0,48,0.00,,---,0.00,VWS V14.01,2013-05-14 09:40:00,
2013-05-14 05:45:00,61.5,41.7,30.21,North,0,0.9,2.5,48,0.00,,---,0.00,VWS V14.01,2013-05-14 09:45:00,
2013-05-14 05:51:00,61.3,41.5,30.21,North,0,1.3,2.0,48,0.00,,---,0.00,VWS V14.01,2013-05-14 09:51:00,
2013-05-14 05:56:00,61.3,41.5,30.21,WNW,292,0.0,0.0,48,0.00,,---,0.00,VWS V14.01,2013-05-14 09:56:00,
2013-05-14 06:02:00,61.3,41.5,30.21,North,0,0.0,1.3,48,0.00,,---,0.00,VWS V14.01,2013-05-14 10:02:00,
2013-05-14 06:07:00,61.2,41.3,30.21,NNE,22,0.0,0.0,48,0.00,,---,0.00,VWS V14.01,2013-05-14 10:07:00,
2013-05-14 06:12:00,61.2,41.9,30.21,NNE,22,0.0,0.0,49,0.00,,---,0.00,VWS V14.01,2013-05-14 10:12:00,
2013-05-14 06:17:00,61.0,41.7,30.21,NNE,22,0.0,0.0,49,0.00,,---,0.00,VWS V14.01,2013-05-14 10:17:00,
2013-05-14 06:23:00,60.8,41.5,30.21,SE,135,0.0,0.0,49,0.00,,---,0.00,VWS V14.01,2013-05-14 10:23:00,
2013-05-14 06:28:00,60.6,41.9,30.21,North,0,0.0,0.0,50,0.00,,---,0.00,VWS V14.01,2013-05-14 10:28:00,
2013-05-14 06:33:00,60.6,41.9,30.21,North,0,0.0,0.0,50,0.00,,---,0.00,VWS V14.01,2013-05-14 10:33:00,
2013-05-14 06:38:00,60.4,41.7,30.21,East,90,0.0,0.0,50,0.00,,---,0.00,VWS V14.01,2013-05-14 10:38:00,
2013-05-14 06:43:00,60.3,41.6,30.21,East,90,0.0,0.0,50,0.00,,---,0.00,VWS V14.01,2013-05-14 10:43:00,
2013-05-14 06:48:00,60.3,41.6,30.21,NNE,22,0.0,1.6,50,0.00,,---,0.00,VWS V14.01,2013-05-14 10:48:00,
2013-05-14 06:54:00,60.3,42.1,30.24,ESE,112,0.0,0.0,51,0.00,,---,0.00,VWS V14.01,2013-05-14 10:54:00,
2013-05-14 06:59:00,60.1,41.9,30.24,East,90,0.0,0.0,51,0.00,,---,0.00,VWS V14.01,2013-05-14 10:59:00,
2013-05-14 07:05:00,60.1,41.9,30.24,WNW,292,0.0,0.0,51,0.00,,---,0.00,VWS V14.01,2013-05-14 11:05:00,
2013-05-14 07:10:00,60.1,41.9,30.24,NW,315,0.0,0.0,51,0.00,,---,0.00,VWS V14.01,2013-05-14 11:10:00,
2013-05-14 07:15:00,60.1,42.4,30.24,North,0,0.0,0.0,52,0.00,,---,0.00,VWS V14.01,2013-05-14 11:15:00,
2013-05-14 07:20:00,60.3,42.6,30.24,NNW,338,0.0,1.3,52,0.00,,---,0.00,VWS V14.01,2013-05-14 11:20:00,
2013-05-14 07:26:00,60.4,42.8,30.24,ENE,68,2.0,2.0,52,0.00,,---,0.00,VWS V14.01,2013-05-14 11:26:00,
2013-05-14 07:31:00,60.6,43.4,30.24,North,0,1.3,1.3,53,0.00,,---,0.00,VWS V14.01,2013-05-14 11:31:00,
2013-05-14 07:37:00,61.0,43.8,30.24,NNW,338,1.3,2.2,53,0.00,,---,0.00,VWS V14.01,2013-05-14 11:37:00,
2013-05-14 07:43:00,61.3,44.1,30.24,NNW,338,2.5,2.5,53,0.00,,---,0.00,VWS V14.01,2013-05-14 11:43:00,
2013-05-14 07:48:00,61.5,44.7,30.24,NNE,22,1.3,2.9,54,0.00,,---,0.00,VWS V14.01,2013-05-14 11:48:00,
2013-05-14 07:54:00,61.9,45.1,30.24,SSE,158,0.0,0.0,54,0.00,,---,0.00,VWS V14.01,2013-05-14 11:54:00,
2013-05-14 07:59:00,62.2,45.4,30.24,ESE,112,1.6,1.6,54,0.00,,---,0.00,VWS V14.01,2013-05-14 11:59:00,
2013-05-14 08:04:00,62.6,45.7,30.24,East,90,0.0,0.9,54,0.00,,---,0.00,VWS V14.01,2013-05-14 12:04:00,
2013-05-14 08:09:00,63.0,46.6,30.24,NNW,338,0.9,0.9,55,0.00,,---,0.00,VWS V14.01,2013-05-14 12:09:00,
2013-05-14 08:15:00,63.7,47.2,30.24,NNW,338,0.0,1.3,55,0.00,,---,0.00,VWS V14.01,2013-05-14 12:15:00,
2013-05-14 08:20:00,63.9,47.4,30.24,SE,135,1.1,3.1,55,0.00,,---,0.00,VWS V14.01,2013-05-14 12:20:00,
2013-05-14 08:25:00,64.4,47.4,30.27,ENE,68,2.7,2.7,54,0.00,,---,0.00,VWS V14.01,2013-05-14 12:25:00,
2013-05-14 08:31:00,65.1,48.1,30.27,ENE,68,1.3,3.1,54,0.00,,---,0.00,VWS V14.01,2013-05-14 12:31:00,
2013-05-14 08:36:00,65.7,48.1,30.27,East,90,2.7,3.1,53,0.00,,---,0.00,VWS V14.01,2013-05-14 12:36:00,
2013-05-14 08:41:00,66.0,48.4,30.27,East,90,3.1,3.1,53,0.00,,---,0.00,VWS V14.01,2013-05-14 12:41:00,
2013-05-14 08:46:00,66.6,48.4,30.27,NNW,338,4.0,4.0,52,0.00,,---,0.00,VWS V14.01,2013-05-14 12:46:00,
2013-05-14 08:51:00,67.1,48.4,30.27,NE,45,2.7,4.9,51,0.00,,---,0.00,VWS V14.01,2013-05-14 12:51:00,
2013-05-14 08:57:00,67.6,48.4,30.27,SSW,202,1.3,3.4,50,0.00,,---,0.00,VWS V14.01,2013-05-14 12:57:00,
2013-05-14 09:02:00,68.2,47.8,30.27,East,90,4.9,4.9,48,0.00,,---,0.00,VWS V14.01,2013-05-14 13:02:00,
2013-05-14 09:08:00,68.9,47.9,30.27,NNE,22,3.1,4.9,47,0.00,,---,0.00,VWS V14.01,2013-05-14 13:08:00,
2013-05-14 09:14:00,69.4,47.2,30.27,ENE,68,5.4,5.4,45,0.00,,---,0.00,VWS V14.01,2013-05-14 13:14:00,
2013-05-14 09:19:00,70.0,47.1,30.27,NNE,22,4.3,4.3,44,0.00,,---,0.00,VWS V14.01,2013-05-14 13:19:00,
2013-05-14 09:24:00,70.5,47.0,30.27,ENE,68,6.0,8.5,43,0.00,,---,0.00,VWS V14.01,2013-05-14 13:24:00,
2013-05-14 09:29:00,71.1,46.8,30.27,North,0,2.0,3.6,42,0.00,,---,0.00,VWS V14.01,2013-05-14 13:29:00,
2013-05-14 09:34:00,71.4,47.2,30.27,ENE,68,2.7,2.7,42,0.00,,---,0.00,VWS V14.01,2013-05-14 13:34:00,
2013-05-14 09:39:00,72.0,45.7,30.27,North,0,3.6,3.6,39,0.00,,---,0.00,VWS V14.01,2013-05-14 13:39:00,
2013-05-14 09:44:00,72.5,45.5,30.27,NNW,338,3.8,5.8,38,0.00,,---,0.00,VWS V14.01,2013-05-14 13:44:00,
2013-05-14 09:49:00,72.9,45.8,30.27,NNW,338,2.7,3.4,38,0.00,,---,0.00,VWS V14.01,2013-05-14 13:49:00,
2013-05-14 09:54:00,73.4,44.8,30.27,ENE,68,4.3,4.7,36,0.00,,---,0.00,VWS V14.01,2013-05-14 13:54:00,
2013-05-14 10:00:00,73.9,44.6,30.27,ENE,68,3.1,3.1,35,0.00,,---,0.00,VWS V14.01,2013-05-14 14:00:00,
2013-05-14 10:06:00,74.5,45.1,30.27,SE,135,9.4,9.4,35,0.00,,---,0.00,VWS V14.01,2013-05-14 14:06:00,
2013-05-14 10:12:00,75.0,44.8,30.27,ENE,68,2.9,3.4,34,0.00,,---,0.00,VWS V14.01,2013-05-14 14:12:00,
2013-05-14 10:17:00,75.4,43.5,30.27,ESE,112,1.6,2.5,32,0.00,,---,0.00,VWS V14.01,2013-05-14 14:17:00,
2013-05-14 10:23:00,75.9,44.0,30.27,SE,135,4.0,4.9,32,0.00,,---,0.00,VWS V14.01,2013-05-14 14:23:00,
2013-05-14 10:28:00,76.3,44.3,30.27,East,90,2.7,2.9,32,0.00,,---,0.00,VWS V14.01,2013-05-14 14:28:00,
2013-05-14 10:33:00,76.8,44.8,30.27,ENE,68,6.0,6.0,32,0.00,,---,0.00,VWS V14.01,2013-05-14 14:33:00,
2013-05-14 10:38:00,77.4,44.4,30.27,SE,135,2.9,3.4,31,0.00,,---,0.00,VWS V14.01,2013-05-14 14:38:00,
2013-05-14 10:43:00,77.5,43.7,30.27,ENE,68,2.9,2.9,30,0.00,,---,0.00,VWS V14.01,2013-05-14 14:43:00,
2013-05-14 10:49:00,78.1,44.2,30.27,East,90,3.1,3.8,30,0.00,,---,0.00,VWS V14.01,2013-05-14 14:49:00,
2013-05-14 10:54:00,78.6,44.6,30.27,NNW,338,2.7,4.7,30,0.00,,---,0.00,VWS V14.01,2013-05-14 14:54:00,
2013-05-14 11:00:00,79.0,43.1,30.27,ENE,68,3.4,3.4,28,0.00,,---,0.00,VWS V14.01,2013-05-14 15:00:00,
2013-05-14 11:05:00,79.5,42.6,30.27,NNE,22,7.2,7.2,27,0.00,,---,0.00,VWS V14.01,2013-05-14 15:05:00,
2013-05-14 11:10:00,79.7,41.8,30.27,NW,315,7.6,7.6,26,0.00,,---,0.00,VWS V14.01,2013-05-14 15:10:00,
2013-05-14 11:15:00,80.2,42.3,30.27,NNW,338,2.5,5.8,26,0.00,,---,0.00,VWS V14.01,2013-05-14 15:15:00,
2013-05-14 11:20:00,80.4,41.4,30.27,NE,45,2.9,4.9,25,0.00,,---,0.00,VWS V14.01,2013-05-14 15:20:00,
2013-05-14 11:25:00,81.0,40.8,30.27,SSW,202,3.4,3.4,24,0.00,,---,0.00,VWS V14.01,2013-05-14 15:25:00,
2013-05-14 11:30:00,81.1,41.0,30.27,NW,315,3.6,5.8,24,0.00,,---,0.00,VWS V14.01,2013-05-14 15:30:00,
2013-05-14 11:36:00,81.7,40.3,30.27,NE,45,3.4,3.6,23,0.00,,---,0.00,VWS V14.01,2013-05-14 15:36:00,
2013-05-14 11:41:00,82.0,40.6,30.27,North,0,2.5,6.3,23,0.00,,---,0.00,VWS V14.01,2013-05-14 15:41:00,
2013-05-14 11:47:00,82.2,39.6,30.27,North,0,2.0,4.9,22,0.00,,---,0.00,VWS V14.01,2013-05-14 15:47:00,
2013-05-14 11:52:00,82.6,38.7,30.27,South,180,2.5,3.4,21,0.00,,---,0.00,VWS V14.01,2013-05-14 15:52:00,
2013-05-14 11:57:00,82.8,38.9,30.27,NNW,338,5.8,6.3,21,0.00,,---,0.00,VWS V14.01,2013-05-14 15:57:00,
2013-05-14 12:02:00,83.1,39.2,30.27,NNW,338,4.0,6.0,21,0.00,,---,0.00,VWS V14.01,2013-05-14 16:02:00,
2013-05-14 12:07:00,83.3,39.3,30.27,NW,315,6.5,6.5,21,0.00,,---,0.00,VWS V14.01,2013-05-14 16:07:00,
2013-05-14 12:13:00,83.7,38.4,30.27,NW,315,2.0,3.8,20,0.00,,---,0.00,VWS V14.01,2013-05-14 16:13:00,
2013-05-14 12:18:00,84.0,39.9,30.27,North,0,1.3,3.6,21,0.00,,---,0.00,VWS V14.01,2013-05-14 16:18:00,
2013-05-14 12:23:00,84.6,39.1,30.27,NNE,22,2.9,5.8,20,0.00,,---,0.00,VWS V14.01,2013-05-14 16:23:00,
2013-05-14 12:28:00,84.9,39.4,30.27,NE,45,2.2,6.3,20,0.00,,---,0.00,VWS V14.01,2013-05-14 16:28:00,
2013-05-14 12:33:00,85.1,39.6,30.27,NNE,22,2.0,6.3,20,0.00,,---,0.00,VWS V14.01,2013-05-14 16:33:00,
2013-05-14 12:38:00,85.5,39.9,30.27,ESE,112,8.7,8.7,20,0.00,,---,0.00,VWS V14.01,2013-05-14 16:38:00,
2013-05-14 12:44:00,85.5,39.9,30.27,NNE,22,2.7,3.8,20,0.00,,---,0.00,VWS V14.01,2013-05-14 16:44:00,
2013-05-14 12:49:00,86.0,39.0,30.27,East,90,4.9,4.9,19,0.00,,---,0.00,VWS V14.01,2013-05-14 16:49:00,
2013-05-14 12:55:00,86.4,39.3,30.27,ENE,68,2.7,2.7,19,0.00,,---,0.00,VWS V14.01,2013-05-14 16:55:00,
2013-05-14 13:00:00,86.7,39.6,30.27,NNE,22,3.4,3.8,19,0.00,,---,0.00,VWS V14.01,2013-05-14 17:00:00,
2013-05-14 13:06:00,87.1,39.9,30.27,SE,135,2.2,3.6,19,0.00,,---,0.00,VWS V14.01,2013-05-14 17:06:00,
2013-05-14 13:11:00,87.1,39.9,30.27,NNE,22,4.5,12.1,19,0.00,,---,0.00,VWS V14.01,2013-05-14 17:11:00,
2013-05-14 13:16:00,87.3,40.0,30.27,NW,315,3.8,3.8,19,0.00,,---,0.00,VWS V14.01,2013-05-14 17:16:00,
2013-05-14 13:21:00,87.4,40.2,30.27,East,90,3.1,3.1,19,0.00,,---,0.00,VWS V14.01,2013-05-14 17:21:00,
2013-05-14 13:27:00,87.8,39.1,30.27,ENE,68,2.2,4.3,18,0.00,,---,0.00,VWS V14.01,2013-05-14 17:27:00,
2013-05-14 13:33:00,87.6,38.9,30.27,SE,135,3.1,3.4,18,0.00,,---,0.00,VWS V14.01,2013-05-14 17:33:00,
2013-05-14 13:38:00,87.6,38.9,30.27,NE,45,6.5,6.9,18,0.00,,---,0.00,VWS V14.01,2013-05-14 17:38:00,
2013-05-14 13:45:00,88.0,39.2,30.27,SW,225,1.6,2.5,18,0.00,,---,0.00,VWS V14.01,2013-05-14 17:45:00,
2013-05-14 13:51:00,88.2,39.4,30.27,North,0,5.4,5.4,18,0.00,,---,0.00,VWS V14.01,2013-05-14 17:51:00,
2013-05-14 13:56:00,88.2,39.4,30.27,East,90,3.1,3.8,18,0.00,,---,0.00,VWS V14.01,2013-05-14 17:56:00,
2013-05-14 14:01:00,88.3,39.5,30.27,NW,315,0.0,2.5,18,0.00,,---,0.00,VWS V14.01,2013-05-14 18:01:00,
2013-05-14 14:07:00,88.7,39.8,30.24,ENE,68,2.5,2.5,18,0.00,,---,0.00,VWS V14.01,2013-05-14 18:07:00,
2013-05-14 14:13:00,89.1,40.1,30.24,East,90,3.6,3.6,18,0.00,,---,0.00,VWS V14.01,2013-05-14 18:13:00,
2013-05-14 14:18:00,89.4,40.4,30.24,North,0,2.9,7.8,18,0.00,,---,0.00,VWS V14.01,2013-05-14 18:18:00,
2013-05-14 14:23:00,89.6,40.5,30.24,NE,45,2.9,2.9,18,0.00,,---,0.00,VWS V14.01,2013-05-14 18:23:00,
2013-05-14 14:29:00,89.8,39.2,30.24,ENE,68,3.6,3.6,17,0.00,,---,0.00,VWS V14.01,2013-05-14 18:29:00,
2013-05-14 14:34:00,89.6,35.9,30.24,WNW,292,2.0,3.4,15,0.00,,---,0.00,VWS V14.01,2013-05-14 18:34:00,
2013-05-14 14:39:00,90.0,39.3,30.24,ENE,68,4.0,4.7,17,0.00,,---,0.00,VWS V14.01,2013-05-14 18:39:00,
2013-05-14 14:45:00,90.1,39.5,30.24,NNW,338,0.9,3.4,17,0.00,,---,0.00,VWS V14.01,2013-05-14 18:45:00,
2013-05-14 14:51:00,90.3,36.5,30.24,SSW,202,2.0,2.9,15,0.00,,---,0.00,VWS V14.01,2013-05-14 18:51:00,
2013-05-14 14:57:00,90.3,36.5,30.24,East,90,2.2,6.0,15,0.00,,---,0.00,VWS V14.01,2013-05-14 18:57:00,
2013-05-14 15:02:00,90.0,36.2,30.24,NNE,22,5.4,5.4,15,0.00,,---,0.00,VWS V14.01,2013-05-14 19:02:00,
2013-05-14 15:07:00,90.1,36.3,30.24,NW,315,2.2,2.2,15,0.00,,---,0.00,VWS V14.01,2013-05-14 19:07:00,
2013-05-14 15:12:00,90.7,36.7,30.24,East,90,4.7,4.7,15,0.00,,---,0.00,VWS V14.01,2013-05-14 19:12:00,
2013-05-14 15:17:00,90.7,36.7,30.24,ENE,68,4.3,6.9,15,0.00,,---,0.00,VWS V14.01,2013-05-14 19:17:00,
2013-05-14 15:23:00,90.7,36.7,30.21,North,0,4.0,6.0,15,0.00,,---,0.00,VWS V14.01,2013-05-14 19:23:00,
2013-05-14 15:29:00,90.7,36.7,30.21,North,0,3.1,3.8,15,0.00,,---,0.00,VWS V14.01,2013-05-14 19:29:00,
2013-05-14 15:34:00,90.7,36.7,30.21,NNW,338,4.0,6.5,15,0.00,,---,0.00,VWS V14.01,2013-05-14 19:34:00,
2013-05-14 15:39:00,90.7,36.7,30.21,SW,225,2.9,5.8,15,0.00,,---,0.00,VWS V14.01,2013-05-14 19:39:00,
2013-05-14 15:44:00,90.7,36.7,30.21,ENE,68,3.8,5.4,15,0.00,,---,0.00,VWS V14.01,2013-05-14 19:44:00,
2013-05-14 15:50:00,91.2,37.2,30.21,NW,315,7.4,7.8,15,0.00,,---,0.00,VWS V14.01,2013-05-14 19:50:00,
2013-05-14 15:55:00,91.2,31.6,30.21,North,0,3.4,6.0,12,0.00,,---,0.00,VWS V14.01,2013-05-14 19:55:00,
2013-05-14 16:00:00,91.4,31.7,30.21,NNW,338,2.0,3.1,12,0.00,,---,0.00,VWS V14.01,2013-05-14 20:00:00,
2013-05-14 16:06:00,91.0,31.4,30.21,North,0,3.4,3.4,12,0.00,,---,0.00,VWS V14.01,2013-05-14 20:06:00,
2013-05-14 16:12:00,91.2,37.2,30.21,NW,315,10.3,10.3,15,0.00,,---,0.00,VWS V14.01,2013-05-14 20:12:00,
2013-05-14 16:17:00,91.2,37.2,30.21,NNE,22,5.4,5.8,15,0.00,,---,0.00,VWS V14.01,2013-05-14 20:17:00,
2013-05-14 16:22:00,91.0,37.0,30.21,WNW,292,10.1,10.1,15,0.00,,---,0.00,VWS V14.01,2013-05-14 20:22:00,
2013-05-14 16:28:00,90.0,36.2,30.21,NNE,22,2.0,7.8,15,0.00,,---,0.00,VWS V14.01,2013-05-14 20:28:00,
2013-05-14 16:33:00,89.6,39.1,30.21,SW,225,2.9,3.1,17,0.00,,---,0.00,VWS V14.01,2013-05-14 20:33:00,
2013-05-14 16:39:00,89.2,40.2,30.18,NW,315,5.6,5.6,18,0.00,,---,0.00,VWS V14.01,2013-05-14 20:39:00,
2013-05-14 16:44:00,88.9,39.9,30.18,North,0,3.1,3.4,18,0.00,,---,0.00,VWS V14.01,2013-05-14 20:44:00,
2013-05-14 16:50:00,88.9,39.9,30.18,NNE,22,6.0,6.0,18,0.00,,---,0.00,VWS V14.01,2013-05-14 20:50:00,
2013-05-14 16:56:00,89.2,40.2,30.18,North,0,2.9,5.8,18,0.00,,---,0.00,VWS V14.01,2013-05-14 20:56:00,
2013-05-14 17:01:00,88.9,39.9,30.18,SSW,202,5.6,11.0,18,0.00,,---,0.00,VWS V14.01,2013-05-14 21:01:00,
2013-05-14 17:06:00,88.2,39.4,30.18,NNW,338,6.3,6.3,18,0.00,,---,0.00,VWS V14.01,2013-05-14 21:06:00,
2013-05-14 17:11:00,88.2,39.4,30.18,NNW,338,2.9,7.6,18,0.00,,---,0.00,VWS V14.01,2013-05-14 21:11:00,
2013-05-14 17:17:00,88.0,39.2,30.18,NE,45,3.1,7.6,18,0.00,,---,0.00,VWS V14.01,2013-05-14 21:17:00,
2013-05-14 17:22:00,88.0,39.2,30.21,NW,315,2.5,4.0,18,0.00,,---,0.00,VWS V14.01,2013-05-14 21:22:00,
2013-05-14 17:28:00,87.8,39.1,30.21,NW,315,3.1,6.0,18,0.00,,---,0.00,VWS V14.01,2013-05-14 21:28:00,
2013-05-14 17:33:00,87.4,40.2,30.21,SW,225,2.7,7.8,19,0.00,,---,0.00,VWS V14.01,2013-05-14 21:33:00,
2013-05-14 17:38:00,87.3,40.0,30.21,NW,315,3.8,8.5,19,0.00,,---,0.00,VWS V14.01,2013-05-14 21:38:00,
2013-05-14 17:44:00,87.3,40.0,30.21,NW,315,5.8,9.8,19,0.00,,---,0.00,VWS V14.01,2013-05-14 21:44:00,
2013-05-14 17:49:00,87.1,39.9,30.21,West,270,1.6,4.0,19,0.00,,---,0.00,VWS V14.01,2013-05-14 21:49:00,
2013-05-14 17:54:00,87.1,39.9,30.18,North,0,6.0,7.6,19,0.00,,---,0.00,VWS V14.01,2013-05-14 21:54:00,
2013-05-14 18:00:00,87.1,39.9,30.18,North,0,2.2,4.0,19,0.00,,---,0.00,VWS V14.01,2013-05-14 22:00:00,
2013-05-14 18:05:00,86.9,39.7,30.18,NW,315,3.4,5.6,19,0.00,,---,0.00,VWS V14.01,2013-05-14 22:05:00,
2013-05-14 18:10:00,86.7,39.6,30.18,North,0,5.4,6.5,19,0.00,,---,0.00,VWS V14.01,2013-05-14 22:10:00,
2013-05-14 18:15:00,86.2,39.1,30.18,NNE,22,4.9,6.5,19,0.00,,---,0.00,VWS V14.01,2013-05-14 22:15:00,
2013-05-14 18:20:00,85.8,40.2,30.18,North,0,5.4,6.5,20,0.00,,---,0.00,VWS V14.01,2013-05-14 22:20:00,
2013-05-14 18:25:00,85.6,40.0,30.18,NNW,338,5.8,9.4,20,0.00,,---,0.00,VWS V14.01,2013-05-14 22:25:00,
2013-05-14 18:31:00,85.1,39.6,30.18,SW,225,3.1,3.1,20,0.00,,---,0.00,VWS V14.01,2013-05-14 22:31:00,
2013-05-14 18:36:00,84.9,39.4,30.18,North,0,1.6,8.1,20,0.00,,---,0.00,VWS V14.01,2013-05-14 22:36:00,
2013-05-14 18:42:00,84.7,39.3,30.18,NW,315,4.7,5.8,20,0.00,,---,0.00,VWS V14.01,2013-05-14 22:42:00,
2013-05-14 18:47:00,84.6,39.1,30.18,NNW,338,3.4,4.3,20,0.00,,---,0.00,VWS V14.01,2013-05-14 22:47:00,
2013-05-14 18:52:00,84.4,39.0,30.21,NW,315,3.6,3.6,20,0.00,,---,0.00,VWS V14.01,2013-05-14 22:52:00,
2013-05-14 18:57:00,83.8,39.8,30.21,WNW,292,3.1,3.6,21,0.00,,---,0.00,VWS V14.01,2013-05-14 22:57:00,
2013-05-14 19:02:00,83.7,39.6,30.21,NNE,22,10.1,10.1,21,0.00,,---,0.00,VWS V14.01,2013-05-14 23:02:00,
2013-05-14 19:07:00,83.3,39.3,30.21,NW,315,2.5,8.7,21,0.00,,---,0.00,VWS V14.01,2013-05-14 23:07:00,
2013-05-14 19:12:00,82.8,38.9,30.21,NW,315,6.0,6.0,21,0.00,,---,0.00,VWS V14.01,2013-05-14 23:12:00,
2013-05-14 19:18:00,82.4,39.8,30.21,WSW,248,3.1,7.4,22,0.00,,---,0.00,VWS V14.01,2013-05-14 23:18:00,
2013-05-14 19:23:00,82.0,39.5,30.21,WNW,292,2.0,5.4,22,0.00,,---,0.00,VWS V14.01,2013-05-14 23:23:00,
2013-05-14 19:29:00,81.3,40.0,30.21,SSW,202,3.6,7.8,23,0.00,,---,0.00,VWS V14.01,2013-05-14 23:29:00,
2013-05-14 19:35:00,80.8,39.6,30.21,NNE,22,4.3,6.0,23,0.00,,---,0.00,VWS V14.01,2013-05-14 23:35:00,
2013-05-14 19:41:00,80.2,39.1,30.18,WNW,292,4.9,7.4,23,0.00,,---,0.00,VWS V14.01,2013-05-14 23:41:00,
2013-05-14 19:46:00,79.9,39.9,30.18,West,270,4.9,10.3,24,0.00,,---,0.00,VWS V14.01,2013-05-14 23:46:00,
2013-05-14 19:52:00,79.5,39.6,30.21,NE,45,3.4,3.4,24,0.00,,---,0.00,VWS V14.01,2013-05-14 23:52:00,
2013-05-14 19:57:00,79.2,39.3,30.21,NNW,338,1.3,4.9,24,0.00,,---,0.00,VWS V14.01,2013-05-14 23:57:00,
2013-05-14 20:03:00,78.8,40.0,30.21,NNW,338,1.6,3.8,25,0.00,,---,0.00,VWS V14.01,2013-05-15 00:03:00,
2013-05-14 20:09:00,78.4,39.7,30.21,North,0,2.5,4.3,25,0.00,,---,0.00,VWS V14.01,2013-05-15 00:09:00,
2013-05-14 20:14:00,78.1,39.4,30.21,NW,315,2.5,7.4,25,0.00,,---,0.00,VWS V14.01,2013-05-15 00:14:00,
2013-05-14 20:20:00,77.9,39.3,30.21,ENE,68,1.3,3.1,25,0.00,,---,0.00,VWS V14.01,2013-05-15 00:20:00,
2013-05-14 20:26:00,77.5,39.0,30.21,NNW,338,1.1,2.7,25,0.00,,---,0.00,VWS V14.01,2013-05-15 00:26:00,
2013-05-14 20:32:00,77.4,39.8,30.21,North,0,1.3,2.2,26,0.00,,---,0.00,VWS V14.01,2013-05-15 00:32:00,
2013-05-14 20:37:00,77.0,39.5,30.21,North,0,2.5,4.0,26,0.00,,---,0.00,VWS V14.01,2013-05-15 00:37:00,
2013-05-14 20:42:00,76.8,40.3,30.21,North,0,2.0,2.0,27,0.00,,---,0.00,VWS V14.01,2013-05-15 00:42:00,
2013-05-14 20:48:00,76.6,40.2,30.21,NE,45,2.9,2.9,27,0.00,,---,0.00,VWS V14.01,2013-05-15 00:48:00,
2013-05-14 20:54:00,76.5,40.0,30.21,NNE,22,3.4,5.4,27,0.00,,---,0.00,VWS V14.01,2013-05-15 00:54:00,
2013-05-14 21:00:00,76.3,40.8,30.21,NNW,338,4.0,4.0,28,0.00,,---,0.00,VWS V14.01,2013-05-15 01:00:00,
2013-05-14 21:05:00,75.9,40.5,30.21,West,270,2.9,4.3,28,0.00,,---,0.00,VWS V14.01,2013-05-15 01:05:00,
2013-05-14 21:10:00,75.7,41.3,30.21,North,0,1.6,4.7,29,0.00,,---,0.00,VWS V14.01,2013-05-15 01:10:00,
2013-05-14 21:15:00,75.6,41.1,30.21,NNE,22,1.3,3.4,29,0.00,,---,0.00,VWS V14.01,2013-05-15 01:15:00,
2013-05-14 21:21:00,75.4,41.8,30.21,North,0,2.0,3.4,30,0.00,,---,0.00,VWS V14.01,2013-05-15 01:21:00,
2013-05-14 21:28:00,75.2,41.7,30.21,NNE,22,3.6,3.6,30,0.00,,---,0.00,VWS V14.01,2013-05-15 01:28:00,
2013-05-14 21:33:00,75.0,42.4,30.21,NNW,338,2.9,4.9,31,0.00,,---,0.00,VWS V14.01,2013-05-15 01:33:00,
2013-05-14 21:39:00,74.8,42.2,30.21,NNE,22,4.0,5.6,31,0.00,,---,0.00,VWS V14.01,2013-05-15 01:39:00,
2013-05-14 21:45:00,74.7,42.0,30.21,North,0,1.3,2.9,31,0.00,,---,0.00,VWS V14.01,2013-05-15 01:45:00,
2013-05-14 21:51:00,74.7,42.0,30.21,SE,135,1.6,1.6,31,0.00,,---,0.00,VWS V14.01,2013-05-15 01:51:00,
2013-05-14 21:58:00,74.3,42.6,30.24,NNW,338,1.1,2.7,32,0.00,,---,0.00,VWS V14.01,2013-05-15 01:58:00,
2013-05-14 22:03:00,74.1,42.4,30.24,NNE,22,1.3,2.7,32,0.00,,---,0.00,VWS V14.01,2013-05-15 02:03:00,
2013-05-14 22:09:00,73.9,42.2,30.24,ESE,112,3.4,4.3,32,0.00,,---,0.00,VWS V14.01,2013-05-15 02:09:00,
2013-05-14 22:15:00,73.9,42.2,30.24,NNE,22,0.0,0.0,32,0.00,,---,0.00,VWS V14.01,2013-05-15 02:15:00,
2013-05-14 22:20:00,73.9,42.2,30.24,East,90,0.0,0.0,32,0.00,,---,0.00,VWS V14.01,2013-05-15 02:20:00,
2013-05-14 22:26:00,73.8,42.1,30.24,North,0,1.3,1.3,32,0.00,,---,0.00,VWS V14.01,2013-05-15 02:26:00,
2013-05-14 22:31:00,73.6,42.7,30.24,South,180,0.0,0.0,33,0.00,,---,0.00,VWS V14.01,2013-05-15 02:31:00,
2013-05-14 22:37:00,73.4,42.6,30.27,South,180,0.0,0.0,33,0.00,,---,0.00,VWS V14.01,2013-05-15 02:37:00,
2013-05-14 22:43:00,73.2,43.2,30.27,NW,315,0.9,0.9,34,0.00,,---,0.00,VWS V14.01,2013-05-15 02:43:00,
2013-05-14 22:48:00,73.0,43.0,30.27,North,0,0.0,0.0,34,0.00,,---,0.00,VWS V14.01,2013-05-15 02:48:00,
2013-05-14 22:53:00,72.7,42.7,30.27,North,0,0.0,0.0,34,0.00,,---,0.00,VWS V14.01,2013-05-15 02:53:00,
2013-05-14 22:59:00,72.5,42.6,30.27,ENE,68,0.0,0.0,34,0.00,,---,0.00,VWS V14.01,2013-05-15 02:59:00,
2013-05-14 23:04:00,72.3,43.2,30.27,North,0,0.0,0.0,35,0.00,,---,0.00,VWS V14.01,2013-05-15 03:04:00,
2013-05-14 23:09:00,72.0,42.8,30.27,ESE,112,0.0,1.1,35,0.00,,---,0.00,VWS V14.01,2013-05-15 03:09:00,
2013-05-14 23:14:00,71.8,43.4,30.27,ESE,112,0.0,0.0,36,0.00,,---,0.00,VWS V14.01,2013-05-15 03:14:00,
2013-05-14 23:20:00,71.6,43.3,30.27,ESE,112,0.0,0.0,36,0.00,,---,0.00,VWS V14.01,2013-05-15 03:20:00,
2013-05-14 23:25:00,71.2,42.9,30.27,ESE,112,0.0,0.0,36,0.00,,---,0.00,VWS V14.01,2013-05-15 03:25:00,
2013-05-14 23:30:00,71.2,43.7,30.27,ESE,112,0.0,0.0,37,0.00,,---,0.00,VWS V14.01,2013-05-15 03:30:00,
2013-05-14 23:36:00,71.1,43.5,30.27,ENE,68,0.0,0.0,37,0.00,,---,0.00,VWS V14.01,2013-05-15 03:36:00,
2013-05-14 23:41:00,70.9,44.0,30.27,East,90,1.6,1.6,38,0.00,,---,0.00,VWS V14.01,2013-05-15 03:41:00,
2013-05-14 23:47:00,70.9,44.0,30.27,ESE,112,0.9,1.6,38,0.00,,---,0.00,VWS V14.01,2013-05-15 03:47:00,
2013-05-14 23:52:00,70.7,43.9,30.27,NE,45,2.5,2.5,38,0.00,,---,0.00,VWS V14.01,2013-05-15 03:52:00,
2013-05-14 23:58:00,70.7,44.5,30.27,NE,45,0.0,1.3,39,0.00,,---,0.00,VWS V14.01,2013-05-15 03:58:00,